M0NPQ Weather Reports


time (UTC)temp
C
wind
direction
speed
KPH
gust
KPH
rain 1hr
cm
rain 24hr
cm
rain mn
cm
humidity
%
barometer
mb
20260510175616 10 248 1.6 6.4 0.00 0.00 0.00 56 1014.8
20260510174719 10 97 1.6 3.2 0.00 0.00 0.00 55 1015.0
20260510173604 10 119 1.6 3.2 0.00 0.00 0.00 57 1014.9
20260510172704 11 248 1.6 6.4 0.00 0.00 0.00 57 1014.9
20260510171803 11 87 1.6 4.8 0.00 0.00 0.00 58 1015.0
20260510171117 11 223 1.6 4.8 0.00 0.00 0.00 58 1015.3
20260510170003 11 233 1.6 6.4 0.00 0.00 0.00 57 1015.4
20260510165618 11 73 1.6 4.8 0.00 0.00 0.00 58 1015.4
20260510164717 11 84 1.6 6.4 0.00 0.00 0.00 58 1015.5
20260510163603 11 217 1.6 6.4 0.00 0.00 0.00 59 1015.6
20260510162703 11 261 1.6 6.4 0.00 0.00 0.00 59 1015.6
20260510161803 11 271 1.6 11.3 0.00 0.00 0.00 60 1015.8
20260510160904 11 159 1.6 6.4 0.00 0.00 0.00 60 1015.8
20260510160004 11 249 1.6 4.8 0.00 0.00 0.00 60 1016.1
20260510155404 11 264 1.6 4.8 0.00 0.00 0.00 60 1016.1
20260510154504 12 297 1.6 6.4 0.00 0.00 0.00 58 1016.4
20260510153818 12 83 1.6 6.4 0.00 0.00 0.00 57 1016.3
20260510152703 12 40 1.6 6.4 0.00 0.00 0.00 59 1016.4
20260510151803 12 285 1.6 4.8 0.00 0.00 0.00 61 1016.2
20260510150904 12 274 1.6 6.4 0.00 0.00 0.00 58 1016.5
20260510150003 13 59 1.6 6.4 0.00 0.00 0.00 57 1016.5
20260510145404 13 78 1.6 4.8 0.00 0.00 0.00 59 1016.7
20260510144503 13 252 1.6 4.8 0.00 0.00 0.00 59 1016.8
20260510143603 12 229 1.6 9.7 0.00 0.00 0.00 59 1016.7
20260510142917 12 244 1.6 6.4 0.00 0.00 0.00 60 1017.0
20260510141803 13 254 1.6 4.8 0.00 0.00 0.00 60 1017.0
20260510140904 12 228 1.6 6.4 0.00 0.00 0.00 60 1017.0
20260510140003 12 266 1.6 6.4 0.00 0.00 0.00 61 1017.0
20260510135404 12 271 1.6 6.4 0.00 0.00 0.00 63 1017.1
20260510134503 12 248 1.6 6.4 0.00 0.00 0.00 62 1017.3
20260510133603 12 266 1.6 6.4 0.00 0.00 0.00 63 1017.3
20260510132703 12 86 1.6 4.8 0.00 0.00 0.00 63 1017.5
20260510131804 12 271 1.6 9.7 0.00 0.00 0.00 64 1017.2
20260510130903 12 262 1.6 6.4 0.00 0.00 0.00 66 1017.3
20260510130003 12 256 1.6 4.8 0.00 0.00 0.00 66 1017.4
20260510125403 12 254 1.6 6.4 0.00 0.00 0.00 68 1017.4
20260510124718 11 259 1.6 9.7 0.00 0.00 0.00 64 1017.3
20260510123603 12 208 1.6 4.8 0.00 0.00 0.00 65 1017.5
20260510122916 12 74 1.6 4.8 0.00 0.00 0.00 66 1017.6
20260510121804 12 245 1.6 6.4 0.00 0.00 0.00 66 1017.6
20260510120904 12 299 1.6 6.4 0.00 0.00 0.00 66 1017.8
20260510120004 12 277 1.6 6.4 0.00 0.00 0.00 66 1017.7
20260510115404 11 279 1.6 6.4 0.00 0.00 0.00 67 1018.1
20260510114719 11 274 1.6 4.8 0.00 0.00 0.00 68 1018.0
20260510113817 12 261 1.6 6.4 0.00 0.00 0.00 68 1017.9
20260510112704 12 248 1.6 9.7 0.00 0.00 0.00 68 1018.2
20260510111803 12 136 1.6 12.9 0.00 0.00 0.00 68 1018.3
20260510111119 13 197 1.6 12.9 0.00 0.00 0.00 65 1018.2
20260510110005 12 127 1.6 6.4 0.00 0.00 0.00 67 1018.1
20260510105404 12 103 1.6 4.8 0.00 0.00 0.00 69 1018.2
20260510104505 12 268 1.6 9.7 0.00 0.00 0.00 68 1018.3
20260510103603 12 254 1.6 9.7 0.00 0.00 0.00 68 1018.3
20260510102703 12 124 0.0 3.2 0.00 0.00 0.00 68 1018.1
20260510101803 12 197 1.6 4.8 0.00 0.00 0.00 69 1018.3
20260510100903 11 79 1.6 4.8 0.00 0.00 0.00 70 1018.4
20260510100003 11 81 1.6 4.8 0.00 0.00 0.00 70 1018.4
20260510095403 11 98 1.6 6.4 0.00 0.00 0.00 70 1018.3
20260510094503 11 245 1.6 6.4 0.00 0.00 0.00 71 1018.4
20260510093603 11 227 1.6 4.8 0.00 0.00 0.00 73 1018.5
20260510092703 11 117 1.6 4.8 0.00 0.00 0.00 72 1018.5
20260510091803 11 334 1.6 4.8 0.00 0.00 0.00 72 1018.4
20260510090903 11 123 1.6 4.8 0.00 0.00 0.00 71 1018.6
20260510090219 11 128 1.6 6.4 0.00 0.00 0.00 71 1018.6
20260510085404 11 206 1.6 6.4 0.00 0.00 0.00 71 1018.4
20260510084718 11 238 1.6 6.4 0.00 0.00 0.00 71 1018.5
20260510083603 11 279 1.6 6.4 0.00 0.00 0.00 70 1018.6
20260510082703 11 246 1.6 6.4 0.00 0.00 0.00 74 1018.8
20260510081803 11 250 1.6 4.8 0.00 0.00 0.00 74 1018.6
20260510080903 11 241 1.6 4.8 0.00 0.00 0.00 75 1018.8
20260510080217 11 289 1.6 4.8 0.00 0.00 0.00 75 1018.7
20260510075404 11 80 1.6 3.2 0.00 0.00 0.00 74 1018.5
20260510074503 11 128 1.6 4.8 0.00 0.00 0.00 73 1018.8
20260510073604 12 233 1.6 6.4 0.00 0.00 0.00 71 1018.8
20260510072703 12 281 1.6 6.4 0.00 0.00 0.00 72 1018.6
20260510071804 11 174 1.6 4.8 0.00 0.00 0.00 75 1018.5
20260510070904 11 254 1.6 4.8 0.00 0.00 0.00 78 1018.6
20260510070005 11 248 1.6 6.4 0.00 0.00 0.00 78 1018.6
20260510065403 11 263 1.6 6.4 0.00 0.00 0.00 78 1018.4
20260510064503 11 244 1.6 4.8 0.00 0.00 0.00 80 1018.4
20260510063603 11 234 1.6 4.8 0.00 0.00 0.00 80 1018.4
20260510062918 11 98 1.6 4.8 0.00 0.00 0.00 80 1018.2
20260510061803 11 287 1.6 4.8 0.00 0.00 0.00 81 1018.2
20260510060904 11 269 1.6 6.4 0.00 0.00 0.00 82 1017.9
20260510060218 11 220 1.6 4.8 0.00 0.00 0.00 82 1018.0
20260510055403 11 319 0.0 4.8 0.00 0.00 0.00 83 1017.7
20260510054504 11 255 1.6 4.8 0.00 0.00 0.00 83 1017.9
20260510053603 11 254 1.6 4.8 0.00 0.00 0.00 84 1017.9
20260510052705 11 149 1.6 6.4 0.00 0.00 0.00 84 1017.7
20260510051803 11 64 1.6 4.8 0.00 0.00 0.00 84 1017.7
20260510050903 11 209 0.0 4.8 0.00 0.00 0.00 84 1017.7
20260510050005 11 132 0.0 3.2 0.00 0.00 0.00 83 1017.7
20260510045403 10 97 0.0 3.2 0.00 0.00 0.00 83 1018.0
20260510044503 10 133 0.0 4.8 0.00 0.00 0.00 83 1017.9
20260510043604 10 79 0.0 3.2 0.00 0.00 0.00 83 1018.1
20260510042704 10 87 0.0 3.2 0.00 0.00 0.00 83 1018.0
20260510041805 10 34 0.0 3.2 0.00 0.00 0.00 82 1018.0
20260510040904 10 215 0.0 3.2 0.00 0.00 0.00 82 1018.1
20260510040003 10 95 0.0 3.2 0.00 0.00 0.00 82 1018.0
20260510035403 10 85 0.0 3.2 0.00 0.00 0.00 82 1018.0
20260510034504 10 154 0.0 4.8 0.00 0.00 0.00 82 1018.1
20260510033603 10 280 0.0 3.2 0.00 0.00 0.00 82 1018.2
20260510032703 10 101 0.0 3.2 0.00 0.00 0.00 82 1018.4
20260510031803 11 118 0.0 1.6 0.00 0.00 0.00 82 1018.5
20260510030903 10 66 0.0 3.2 0.00 0.00 0.00 81 1018.4
20260510030003 10 291 0.0 3.2 0.00 0.00 0.00 81 1018.6
20260510025404 11 250 0.0 3.2 0.00 0.00 0.00 82 1018.4
20260510024503 11 96 0.0 3.2 0.00 0.00 0.00 83 1018.6
20260510023603 11 84 0.0 4.8 0.00 0.00 0.00 84 1018.5
20260510022703 11 68 0.0 1.6 0.00 0.00 0.00 85 1018.4
20260510021803 11 283 0.0 1.6 0.00 0.00 0.00 86 1018.4
20260510020903 10 260 0.0 1.6 0.00 0.00 0.00 87 1018.2
20260510020005 10 96 0.0 1.6 0.00 0.00 0.00 88 1018.5
20260510015403 10 88 0.0 1.6 0.00 0.00 0.00 88 1018.4
20260510014503 10 80 0.0 1.6 0.00 0.00 0.00 88 1018.6
20260510013604 10 84 0.0 1.6 0.00 0.00 0.00 88 1018.5
20260510012704 10 347 0.0 1.6 0.00 0.00 0.00 88 1018.4
20260510011804 10 184 0.0 1.6 0.00 0.00 0.00 87 1018.2
20260510010904 10 86 0.0 1.6 0.00 0.00 0.00 87 1018.4
20260510010005 10 71 0.0 1.6 0.00 0.00 0.00 87 1018.5
20260510005403 10 28 0.0 3.2 0.00 0.00 0.00 87 1018.4
20260510004503 11 255 0.0 3.2 0.00 0.00 0.00 88 1018.5
20260510003604 11 0 0.0 0.0 0.00 0.00 0.00 88 1018.4
20260510002703 11 0 0.0 0.0 0.00 0.00 0.00 89 1018.6
20260510001806 11 257 0.0 1.6 0.00 0.00 0.00 89 1018.7
20260510000904 11 0 0.0 0.0 0.00 0.00 0.00 89 1018.8
20260510000003 11 87 0.0 1.6 0.00 0.00 0.00 89 1018.8
20260509235617 11 89 0.0 1.6 0.00 0.00 0.00 89 1018.9
20260509234719 11 94 0.0 1.6 0.00 0.00 0.00 89 1019.1
20260509233603 11 72 0.0 1.6 0.00 0.00 0.00 89 1019.0
20260509232703 11 72 0.0 1.6 0.00 0.00 0.00 90 1018.9
20260509231803 11 0 0.0 0.0 0.00 0.00 0.00 90 1018.9
20260509230904 11 0 0.0 0.0 0.00 0.00 0.00 90 1018.8
20260509230004 11 0 0.0 0.0 0.00 0.00 0.00 90 1018.7
20260509225617 11 0 0.0 0.0 0.00 0.00 0.00 89 1018.7
20260509224503 11 0 0.0 0.0 0.00 0.00 0.00 89 1018.7
20260509223603 11 0 0.0 0.0 0.00 0.00 0.00 89 1018.6
20260509222703 11 0 0.0 0.0 0.00 0.00 0.00 89 1018.6
20260509221804 11 0 0.0 0.0 0.00 0.00 0.00 88 1018.6
20260509220903 12 0 0.0 0.0 0.00 0.00 0.00 88 1018.6
20260509220003 12 0 0.0 0.0 0.00 0.00 0.00 88 1018.6
20260509215403 12 0 0.0 0.0 0.00 0.00 0.00 88 1018.5
20260509214503 12 0 0.0 0.0 0.00 0.00 0.00 87 1018.7
20260509213603 12 0 0.0 0.0 0.00 0.00 0.00 87 1018.5
20260509212704 12 0 0.0 0.0 0.00 0.00 0.00 86 1018.6
20260509211803 12 0 0.0 0.0 0.00 0.00 0.00 86 1018.5
20260509210903 12 0 0.0 0.0 0.00 0.00 0.00 85 1018.6
20260509210003 12 0 0.0 0.0 0.00 0.00 0.00 85 1018.8
20260509205616 12 0 0.0 0.0 0.00 0.00 0.00 85 1018.7
20260509204504 12 0 0.0 0.0 0.00 0.00 0.00 85 1018.5
20260509203603 12 0 0.0 0.0 0.00 0.00 0.00 85 1018.7
20260509202705 12 0 0.0 0.0 0.00 0.00 0.00 85 1018.6
20260509201804 12 0 0.0 0.0 0.00 0.00 0.00 85 1018.8
20260509200903 12 0 0.0 0.0 0.00 0.00 0.00 85 1018.7
20260509200003 12 0 0.0 0.0 0.00 0.00 0.00 85 1018.5
20260509195618 12 0 0.0 0.0 0.00 0.00 0.00 85 1018.6
20260509194503 12 263 0.0 1.6 0.00 0.00 0.00 85 1018.4
20260509193604 12 263 0.0 1.6 0.00 0.00 0.00 84 1018.2
20260509192703 12 87 0.0 1.6 0.00 0.00 0.00 84 1018.3
20260509192018 12 0 0.0 0.0 0.00 0.00 0.00 84 1018.1
20260509190903 12 268 0.0 1.6 0.00 0.00 0.00 84 1018.1
20260509190005 13 88 0.0 1.6 0.00 0.00 0.00 83 1018.0
20260509185617 13 87 0.0 1.6 0.00 0.00 0.00 83 1018.1
20260509184503 13 94 0.0 1.6 0.00 0.00 0.00 83 1018.0
20260509183606 13 0 0.0 0.0 0.00 0.00 0.00 83 1018.1
20260509182703 13 0 0.0 0.0 0.00 0.00 0.00 83 1018.1